Overview Statistics Trail Chart Weather Telemetry Raw packets
 

This is the latest recevied weather packets stored in our database for station/object DL0BB-10. If no packets are shown the sender has not sent any weather packets the latest 10 day(s).

<< 17 18 19 20 21 22 23 >>
Time Temp. Humidity Pressure Rain* Wind** Luminosity Snow
1788299087 25.56° C 41% 1022.1 hPa - - - -
1788298187 26.11° C 40% 1022 hPa - - - -
1788297287 26.67° C 39% 1022 hPa - - - -
1788296386 25.56° C 41% 1022 hPa - - - -
1788295489 26.11° C 41% 1022.1 hPa - - - -
1788294589 26.67° C 40% 1022 hPa - - - -
1788293689 26.67° C 39% 1022 hPa - - - -
1788292789 26.11° C 41% 1022 hPa - - - -
1788291889 26.11° C 40% 1022 hPa - - - -
1788290988 26.67° C 39% 1021.9 hPa - - - -
1788290088 26.67° C 40% 1021.9 hPa - - - -
1788289188 26.11° C 41% 1021.8 hPa - - - -
1788288288 26.67° C 40% 1021.6 hPa - - - -
1788287388 27.22° C 39% 1021.4 hPa - - - -
1788286488 26.67° C 41% 1021.4 hPa - - - -
1788285604 26.67° C 41% 1021.2 hPa - - - -
1788284688 26.67° C 40% 1021.3 hPa - - - -
1788283787 27.22° C 39% 1021.1 hPa - - - -
1788282888 26.67° C 41% 1021.2 hPa - - - -
1788281987 26.67° C 41% 1021.2 hPa - - - -
1788281087 27.22° C 40% 1021.2 hPa - - - -
1788280187 27.22° C 39% 1021.2 hPa - - - -
1788279287 26.67° C 41% 1021.2 hPa - - - -
1788278387 26.67° C 40% 1021.4 hPa - - - -
1788277487 27.22° C 39% 1021.4 hPa - - - -

* Rain since midnight (hover to see other rain measurements)
** Current wind speed in m/s (hover to see current wind gust speed)